Simultaneous Nadir Overpasses (SNOs) Predictions

Prediction of SNOs between GOES-16 and NOAA-20 Satellite Orbit:

Table of predicted SNOs for the next 14.0 days since TLE Epoch: 7/23/2022
Index Date Time (GOES-16) GOES-16 Lat,Lon NOAA-20 Lat,Lon Distance(km) Time Diff (sec)
1 07/23/2022 06:38:40 0.03, -75.20 0.62, -77.95 313.85 80
2 07/24/2022 06:17:14 0.03, -75.20 -0.39, -73.42 202.91 80
3 07/25/2022 18:39:09 -0.01, -75.21 -0.78, -78.73 400.17 80
4 07/26/2022 18:23:04 0.02, -75.22 0.23, -74.19 116.34 80
5 07/28/2022 06:44:51 -0.02, -75.22 0.91, -79.47 483.56 80
6 07/29/2022 06:23:26 -0.01, -75.23 -0.11, -74.93 34.15 80
7 07/31/2022 18:26:35 0.01, -75.26 -0.10, -75.69 49.47 80
8 08/01/2022 18:10:29 0.01, -75.28 0.92, -71.16 468.83 80
9 08/03/2022 06:32:15 -0.00, -75.29 0.28, -76.42 129.64 80
10 08/04/2022 06:10:51 -0.00, -75.31 -0.80, -71.90 388.80 80
11 08/05/2022 18:32:45 0.01, -75.34 -0.42, -77.20 212.00 80
